Simultaneous Nadir Overpasses (SNOs) Predictions

Prediction of SNOs between AURA and NPP Satellite Orbit:

Table of predicted SNOs for the next 14.0 days since TLE Epoch: 12/2/2011
Index Date Time (AURA) AURA Lat,Lon NPP Lat,Lon Distance(km) Time Diff (sec)
1 12/02/2011 18:18:33 79.46, 162.16 79.46, 162.29 2.68 62
2 12/02/2011 19:07:56 -79.60, -29.14 -79.59, -29.28 3.02 16
3 12/05/2011 10:34:58 79.47, -81.86 79.46, -81.92 1.38 35
4 12/05/2011 11:24:18 -79.73, 87.67 -79.72, 87.63 0.84 42
5 12/08/2011 02:51:18 79.62, 35.12 79.63, 35.23 2.14 8
6 12/08/2011 03:40:39 -79.84,-155.57 -79.85,-155.45 2.59 69
7 12/10/2011 18:18:18 -79.47, -17.69 -79.47, -17.64 1.02 57
8 12/10/2011 19:07:38 79.69, 151.52 79.69, 151.54 0.41 21
9 12/13/2011 10:34:38 -79.53, 98.65 -79.53, 98.65 0.22 27
10 12/13/2011 11:23:57 79.78, -91.86 79.78, -91.86 0.18 51
11 12/16/2011 02:01:35 79.39, 45.93 79.39, 45.94 0.33 73




NCC Satellite Simultaneous Nadir Overpasses (SNOs) Prediction Service
